Vidalia, GA

9:27 AM EDT on March 27, 2017 (GMT -0400)
Vidalia Municipal

Weather History for KVDI - December, 2013

Change the Weather History Date:

Tuesday, December 17, 2013

  Actual Average (KSBO) Record (KSBO)
Temperature  
Mean Temperature 50 °F -  
Max Temperature 64 °F 60 °F 71 °F (2015)
Min Temperature 37 °F 36 °F 32 °F (2013)
Degree Days  
Heating Degree Days 14    
Moisture  
Dew Point 34 °F    
Average Humidity 55    
Maximum Humidity 87    
Minimum Humidity 30    
Precipitation  
Precipitation 0.00 in - - ()
Sea Level Pressure  
Sea Level Pressure 30.21 in    
Wind  
Wind Speed 4 mph (West)    
Max Wind Speed 10 mph    
Max Gust Speed 16 mph    
Visibility 10 miles    
Events      
Averages and records for this station are not official NWS values.
T = Trace of Precipitation, MM = Missing Value Source: NWS Daily Summary

Daily Weather History Graph

Daily Weather History Graph

Search for Another Location

Airport or City:

Trip Planner

Search our weather history database for the weather conditions in past years. The results will help you decide how hot, cold, wet, or windy it might be!

Date:

Astronomy

Dec. 17, 2013 Rise Set
Actual Time 7:24 AM EST 5:27 PM EST
Civil Twilight 6:57 AM EST 5:54 PM EST
Nautical Twilight 6:26 AM EST 6:24 PM EST
Astronomical Twilight 5:56 AM EST 6:54 PM EST
Moon 6:02 PM EST (12/17) 7:22 AM EST (12/17)
Length of Visible Light 10h 57m
Length of Day
10h 02m
Full, 100% of the Moon is Illuminated
Dec 17
Full
Dec 25
Last Quarter
Jan 1
New
Jan 7
First Quarter
Jan 15
Full

Hourly Weather History & Observations

Time (EST) Temp. Windchill Dew Point Humidity Pressure Visibility Wind Dir Wind Speed Gust Speed Precip Events Conditions
12:15 AM 42.8 °F - 35.6 °F 76% 30.25 in 10.0 mi Calm Calm - N/A   Clear
12:55 AM 42.8 °F 41.1 °F 35.6 °F 76% 30.25 in 10.0 mi WSW 3.5 mph - N/A   Clear
1:15 AM 41.0 °F 39.0 °F 35.6 °F 81% 30.25 in 10.0 mi West 3.5 mph - N/A   Clear
1:35 AM 41.0 °F - 35.6 °F 81% 30.25 in 10.0 mi Calm Calm - N/A   Clear
1:55 AM 39.2 °F - 35.6 °F 87% 30.25 in 10.0 mi Calm Calm - N/A   Clear
2:15 AM 41.0 °F - 35.6 °F 81% 30.25 in 10.0 mi Calm Calm - N/A   Clear
2:35 AM 41.0 °F - 35.6 °F 81% 30.25 in 10.0 mi Calm Calm - N/A   Clear
2:55 AM 41.0 °F - 35.6 °F 81% 30.25 in 10.0 mi Calm Calm - N/A   Clear
3:15 AM 39.2 °F - 35.6 °F 87% 30.25 in 10.0 mi Calm Calm - N/A   Clear
3:35 AM 39.2 °F - 35.6 °F 87% 30.25 in 10.0 mi Calm Calm - N/A   Clear
3:55 AM 41.0 °F 39.0 °F 33.8 °F 76% 30.26 in 10.0 mi WNW 3.5 mph - N/A   Clear
4:15 AM 42.8 °F 41.1 °F 33.8 °F 70% 30.26 in 10.0 mi West 3.5 mph - N/A   Clear
4:35 AM 41.0 °F - 33.8 °F 76% 30.25 in 10.0 mi Calm Calm - N/A   Clear
4:55 AM 41.0 °F - 33.8 °F 76% 30.25 in 10.0 mi Calm Calm - N/A   Clear
5:15 AM 41.0 °F - 33.8 °F 76% 30.25 in 10.0 mi Calm Calm - N/A   Clear
5:35 AM 41.0 °F - 33.8 °F 76% 30.25 in 10.0 mi Calm Calm - N/A   Clear
5:55 AM 41.0 °F 39.0 °F 33.8 °F 76% 30.25 in 10.0 mi WNW 3.5 mph - N/A   Clear
6:15 AM 41.0 °F 39.0 °F 33.8 °F 76% 30.25 in 10.0 mi WNW 3.5 mph - N/A   Clear
6:35 AM 41.0 °F - 33.8 °F 76% 30.25 in 10.0 mi Calm Calm - N/A   Clear
6:55 AM 37.4 °F - 33.8 °F 87% 30.25 in 10.0 mi Calm Calm - N/A   Clear
7:15 AM 41.0 °F - 33.8 °F 76% 30.26 in 10.0 mi Calm Calm - N/A   Clear
7:35 AM 41.0 °F 39.0 °F 33.8 °F 76% 30.26 in 10.0 mi WNW 3.5 mph - N/A   Clear
7:55 AM 42.8 °F - 33.8 °F 70% 30.27 in 10.0 mi Calm Calm - N/A   Clear
8:15 AM 44.6 °F 42.2 °F 33.8 °F 66% 30.27 in 10.0 mi West 4.6 mph - N/A   Clear
8:35 AM 46.4 °F 45.2 °F 33.8 °F 62% 30.27 in 10.0 mi WNW 3.5 mph - N/A   Clear
8:55 AM 48.2 °F - 35.6 °F 62% 30.27 in 10.0 mi West 4.6 mph - N/A   Clear
9:15 AM 50.0 °F - 35.6 °F 58% 30.28 in 10.0 mi West 6.9 mph - N/A   Clear
9:35 AM 51.8 °F - 35.6 °F 54% 30.27 in 10.0 mi West 6.9 mph - N/A   Clear
9:55 AM 53.6 °F - 33.8 °F 47% 30.27 in 10.0 mi WNW 8.1 mph - N/A   Clear
10:15 AM 55.4 °F - 35.6 °F 47% 30.27 in 10.0 mi WNW 5.8 mph - N/A   Clear
10:35 AM 55.4 °F - 35.6 °F 47% 30.27 in 10.0 mi WNW 10.4 mph - N/A   Clear
10:55 AM 57.2 °F - 35.6 °F 44% 30.27 in 10.0 mi West 5.8 mph - N/A   Clear
11:15 AM 59.0 °F - 33.8 °F 39% 30.26 in 10.0 mi WNW 9.2 mph - N/A   Clear
11:35 AM 60.8 °F - 35.6 °F 39% 30.25 in 10.0 mi NNW 6.9 mph - N/A   Clear
11:55 AM 60.8 °F - 33.8 °F 36% 30.24 in 10.0 mi NW 5.8 mph - N/A   Clear
12:15 PM 60.8 °F - 33.8 °F 36% 30.22 in 10.0 mi West 8.1 mph - N/A   Clear
12:35 PM 62.6 °F - 33.8 °F 34% 30.21 in 10.0 mi WSW 8.1 mph - N/A   Clear
12:55 PM 62.6 °F - 32.0 °F 32% 30.20 in 10.0 mi WSW 9.2 mph - N/A   Clear
1:15 PM 64.4 °F - 32.0 °F 30% 30.18 in 10.0 mi West 8.1 mph - N/A   Clear
1:35 PM 64.4 °F - 32.0 °F 30% 30.17 in 10.0 mi West 6.9 mph - N/A   Clear
1:55 PM 64.4 °F - 32.0 °F 30% 30.17 in 10.0 mi West 10.4 mph 16.1 mph N/A   Clear
2:15 PM 64.4 °F - 32.0 °F 30% 30.16 in 10.0 mi WSW 5.8 mph - N/A   Clear
2:35 PM 64.4 °F - 32.0 °F 30% 30.16 in 10.0 mi WSW 9.2 mph - N/A   Clear
2:55 PM 64.4 °F - 32.0 °F 30% 30.15 in 10.0 mi West 8.1 mph - N/A   Clear
3:15 PM 64.4 °F - 32.0 °F 30% 30.15 in 10.0 mi WSW 9.2 mph - N/A   Clear
3:35 PM 64.4 °F - 32.0 °F 30% 30.15 in 10.0 mi WSW 9.2 mph - N/A   Clear
3:55 PM 64.4 °F - 32.0 °F 30% 30.15 in 10.0 mi West 9.2 mph - N/A   Clear
4:15 PM 64.4 °F - 32.0 °F 30% 30.14 in 10.0 mi WSW 9.2 mph - N/A   Clear
4:35 PM 62.6 °F - 32.0 °F 32% 30.15 in 10.0 mi WSW 8.1 mph - N/A   Clear
4:55 PM 62.6 °F - 33.8 °F 34% 30.14 in 10.0 mi SW 5.8 mph - N/A   Clear
5:15 PM 60.8 °F - 33.8 °F 36% 30.15 in 10.0 mi WSW 4.6 mph - N/A   Clear
5:35 PM 59.0 °F - 33.8 °F 39% 30.15 in 10.0 mi WSW 5.8 mph - N/A   Clear
5:55 PM 55.4 °F - 35.6 °F 47% 30.15 in 10.0 mi WSW 6.9 mph - N/A   Clear
6:15 PM 55.4 °F - 33.8 °F 44% 30.14 in 10.0 mi SW 4.6 mph - N/A   Clear
6:35 PM 55.4 °F - 33.8 °F 44% 30.15 in 10.0 mi SW 6.9 mph - N/A   Clear
6:55 PM 53.6 °F - 33.8 °F 47% 30.16 in 10.0 mi WSW 5.8 mph - N/A   Clear
7:15 PM 53.6 °F - 33.8 °F 47% 30.16 in 10.0 mi WSW 6.9 mph - N/A   Clear
7:35 PM 53.6 °F - 33.8 °F 47% 30.17 in 10.0 mi WSW 5.8 mph - N/A   Clear
7:55 PM 51.8 °F - 33.8 °F 50% 30.17 in 10.0 mi WSW 6.9 mph - N/A   Clear
8:15 PM 53.6 °F - 33.8 °F 47% 30.17 in 10.0 mi WSW 6.9 mph - N/A   Clear
8:35 PM 51.8 °F - 33.8 °F 50% 30.17 in 10.0 mi WSW 5.8 mph - N/A   Clear
8:55 PM 53.6 °F - 33.8 °F 47% 30.17 in 10.0 mi WSW 6.9 mph - N/A   Clear
9:15 PM 51.8 °F - 35.6 °F 54% 30.17 in 10.0 mi WSW 5.8 mph - N/A   Clear
9:35 PM 51.8 °F - 35.6 °F 54% 30.17 in 10.0 mi WSW 6.9 mph - N/A   Clear
9:55 PM 51.8 °F - 35.6 °F 54% 30.17 in 10.0 mi WSW 6.9 mph - N/A   Clear
10:15 PM 51.8 °F - 35.6 °F 54% 30.18 in 10.0 mi WSW 6.9 mph - N/A   Clear
10:35 PM 51.8 °F - 35.6 °F 54% 30.18 in 10.0 mi WSW 8.1 mph - N/A   Clear
10:55 PM 51.8 °F - 35.6 °F 54% 30.17 in 10.0 mi WSW 8.1 mph - N/A   Clear
11:15 PM 51.8 °F - 35.6 °F 54% 30.17 in 10.0 mi WSW 8.1 mph - N/A   Clear
11:35 PM 50.0 °F - 35.6 °F 58% 30.17 in 10.0 mi WSW 6.9 mph - N/A   Clear
11:55 PM 50.0 °F - 35.6 °F 58% 30.17 in 10.0 mi WSW 8.1 mph - N/A   Clear